www.pogodaiklimat.ru

Погода и климат >> Архив погоды >> Россия >> Свердловская область >> Екатеринбург


АРХИВ ПОГОДЫ в Екатеринбурге

Время (UTC), дата Ветер
(напр.,м/с)
 
Видим.   Явления Облачность Т
(С)
Тd
(С)
f
(%)
Тe
(С)
Тes
(С)
Комфортность P
(гПа)
Po
(гПа)
Тmin
(С)
Tmax
(С)
R
(мм)
R24
(мм)
S
(см)
09 18.06 З 3 50 км 10/8 600 м
[Sc Ac As]
+21.5 +9.8 47 +23 +24 комфорт 1000.6 968.8
12 18.06 СЗ 3 50 км 10/8 600 м
[Cb calv Ac As]
+20.7 +9.3 48 +23 +23 комфорт 999.3 967.5
15 18.06 СЗ 4 50 км 10/8 600 м
[Cb calv Ac As]
+19.7 +9.5 52 +21 +21 комфорт 998.3 966.4 +21.9
18 18.06 З 3
{12}
10 км слабый ливневой дождь 10/10 300 м
[Cb cap]
+14.2 +12.8 91 +13 +13 прохладно 998.2 965.7
21 18.06 З 4 4000 м слабый ливневой дождь 10/10 600 м
[Cb calv]
+12.7 +11.4 92 +11 +11 прохладно 996.6 963.9
00 19.06 З 5-10
{11}
10 км ливневой дождь 10/10 600 м
[Cb cap]
+12.6 +11.2 91 +10 +10 прохладно 994.1 961.6
03 19.06 З 6-11
{12}
10 км слабый ливневой дождь 10/10 600 м
[Cb calv]
+13.1 +11.6 91 +11 +11 холодно 992.5 960.1 +12.5 16
06 19.06 З 6-11
{14}
10 км слабый ливневой дождь 10/10 600 м
[Cb cap]
+13.9 +11.9 88 +12 +12 очень
холодно
991.9 959.6
09 19.06 З 5-13
{13}
10 км слабый ливневой дождь 10/10 300 м
[Cb cap]
+14.2 +12.2 88 +12 +12 очень
холодно
993.2 960.9
12 19.06 З 5-10
{13}
20 км слабый ливневой дождь 10/6 600 м
[Cb cap Ac As]
+13.7 +11.7 88 +12 +12 очень
холодно
994.6 962.2
15 19.06 З 5-11
{12}
20 км {ливн. осадки} 9/8 600 м
[Cb calv Ac As]
+13.8 +10.9 83 +12 +12 очень
холодно
994.9 962.5 +14.4 8
18 19.06 З 5
{12}
10 км {ливн. осадки} 9/0
[Ac As]
+12.3 +8.3 77 +10 +10 холодно 995.7 963.0
21 19.06 З 5-10
{10}
10 км 9/9 600 м
[Sc]
+13.0 +7.6 70 +11 +11 прохладно 994.9 962.3
00 20.06 З 5-10
{13}
10 км слабый ливневой дождь 10/10 600 м
[Cb cap]
+12.3 +8.0 75 +10 +10 прохладно 995.3 962.6
03 20.06 ЮЗ 3
{12}
20 км слабый ливневой дождь 10/10 600 м
[Cb cap]
+12.0 +9.6 85 +10 +10 очень
холодно
996.2 963.5 +11.1 3
06 20.06 ЮЗ 3 20 км слабый ливневой дождь 10/10 600 м
[Cb cap]
+15.0 +11.3 79 +14 +14 холодно 996.5 964.1
09 20.06 ЮЗ 4 20 км {ливн. осадки} 8/6 600 м
[Cu Sc Cs]
+22.1 +12.1 53 +24 +28 комфорт 994.7 963.2
12 20.06 В 1
{11}
50 км в посл. час гроза {ливн. осадки} 8/6 600 м
[Cb calv Cs]
+16.2 +14.7 91 +17 +20 холодно 995.4 963.3
15 20.06 З 3 50 км 6/4 600 м
[Cb calv Cs]
+20.9 +10.0 50 +23 +23 комфорт 994.5 962.8 +23.1 11
18 20.06 З 2 10 км 4/4 600 м
[Sc]
+16.3 +8.9 62 +16 +16 прохладно 995.8 963.6
21 20.06 З 2 10 км 9/9 600 м
[Sc]
+15.0 +10.2 73 +15 +15 по сезону 995.1 962.8
00 21.06 З 1 20 км 8/3 600 м
[Sc Cs]
+13.6 +10.8 83 +14 +14 по сезону 994.5 962.0
03 21.06 З 2 20 км {ливн. осадки} 9/9 600 м
[Cb calv]
+15.8 +12.2 79 +16 +16 по сезону 994.4 962.2 +13.6
06 21.06 СЗ 3 10 км слабый ливневой дождь 10/10 600 м
[Cb calv]
+15.6 +12.9 84 +15 +15 холодно 995.0 962.8
09 21.06 З 3 10 км {ливн. осадки} 10/10 600 м
[Cb calv]
+16.7 +13.3 80 +16 +16 холодно 996.6 964.4
12 21.06 З 6-11
{12}
20 км {ливн. осадки} 10/8 600 м
[Sc diur, vesp Ci fib]
+19.1 +11.9 63 +20 +20 прохладно 997.8 965.9
15 21.06 З 4
{11}
50 км 5/3 600 м
[Sc diur, vesp Ci fib]
+19.7 +10.2 54 +21 +21 комфорт 999.2 967.3 +20.0 0.5
18 21.06 З 2 10 км ясно +16.2 +9.9 66 +16 +16 по сезону 1001.1 968.7
21 21.06 З 2 10 км ясно +13.4 +8.9 74 +13 +13 прохладно 1002.5 969.8
00 22.06 ЮВ 2 20 км ясно +11.7 +8.5 81 +11 +11 прохладно 1002.7 969.7
03 22.06 Ю 2 50 км 4/0
[Cc]
+17.1 +9.5 61 +17 +22 по сезону 1002.7 970.3 +11.6
06 22.06 Ю 4 20 км слабый ливневой дождь 9/9 600 м
[Cb cap]
+19.6 +9.5 52 +21 +22 комфорт 1002.6 970.5
09 22.06 ЮЗ 5-12
{10}
20 км {ливн. осадки} 9/8 600 м
[Cb calv Cs]
+22.5 +10.7 47 +24 +26 комфорт 1001.7 970.0
12 22.06 Ю 4
{12}
50 км {ливн. осадки} 8/6 600 м
[Cb calv Cs]
+23.1 +10.8 46 +25 +27 комфорт 1001.3 969.7
15 22.06 ЮЗ 3
{11}
50 км слабый ливневой дождь 9/6 600 м
[Cb cap Cs]
+22.2 +10.2 46 +24 +24 комфорт 1001.6 969.8 +23.9
18 22.06 Ю 2
{10}
10 км {ливн. осадки} 9/9 600 м
[Cb calv]
+20.3 +10.5 53 +22 +22 комфорт 1002.1 970.1
21 22.06 Ю 3
{10}
10 км слабый ливневой дождь 10/10 600 м
[Cb cap]
+16.5 +13.8 84 +16 +16 по сезону 1002.4 970.0
00 23.06 Ю 2 10 км {ливн. осадки} 9/9 600 м
[Cb calv]
+15.9 +13.6 86 +16 +16 тепло 1002.4 970.0
03 23.06 ЮЗ 2 10 км слабый ливневой дождь 10/10 600 м
[Cb cap]
+14.8 +13.2 90 +14 +14 прохладно 1003.1 970.5 +14.8 5
06 23.06 З 1 10 км слабый ливневой дождь 9/9 600 м
[Cb cap]
+15.6 +13.8 89 +16 +18 прохладно 1003.5 971.0
09 23.06 СЗ 3 20 км {ливн. осадки} 8/6 600 м
[Cb calv Ci fib]
+18.9 +9.7 55 +20 +24 по сезону 1004.0 971.8
12 23.06 З 3 50 км {ливн. осадки} 9/6 600 м
[Cb calv Cs]
+21.3 +7.4 41 +22 +24 комфорт 1003.5 971.6
15 23.06 СЗ 4 50 км 4/3 600 м
[Cu med, cong Cs]
+19.9 +4.0 35 +20 +21 по сезону 1004.1 972.0 +22.4 2
18 23.06 СЗ 2 10 км 3/0
[Cs]
+16.5 +5.8 49 +17 +17 по сезону 1005.7 973.1
21 23.06 Ю 1 10 км 3/0
[Ci fib]
+12.9 +6.9 67 +13 +13 прохладно 1006.4 973.4
00 24.06 ЮЗ 1 20 км 3/0
[Cs]
+10.4 +7.4 82 +10 +10 прохладно 1006.8 973.6
03 24.06 СЗ 2 50 км 3/1 600 м
[Sc Ci fib]
+15.6 +7.9 60 +16 +20 по сезону 1006.7 974.0 +10.3
06 24.06 З 2 50 км 9/9 600 м
[Cb calv]
+17.9 +5.3 43 +18 +20 прохладно 1006.0 973.6
09 24.06 Ю 4 50 км 8/8 1000 м
[Sc diur, vesp]
+21.1 +4.3 33 +21 +23 комфорт 1004.3 972.3
12 24.06 З 3
{14}
20 км в посл. час ливневой дождь 9/4 600 м
[Cb calv Ac und Cc]
+17.0 +11.4 70 +17 +19 холодно 1005.3 972.8
15 24.06 З 4
{10}
50 км 10/6 600 м
[Sc diur, vesp Cs]
+16.3 +8.1 58 +16 +16 прохладно 1005.4 972.9 +21.8 2
18 24.06 штиль 0 10 км {ливн. осадки} 10/4 600 м
[Cb calv Cc]
+12.1 +10.0 87 +12 +12 холодно 1006.4 973.4
21 24.06 З 1 10 км 10/10 600 м
[Cb calv]
+12.2 +9.8 85 +12 +12 прохладно 1005.7 972.7
00 25.06 ЮВ 2 20 км 10/10 600 м
[Sc]
+11.6 +9.3 86 +10 +10 прохладно 1004.8 971.8
03 25.06 В 2 20 км в посл. час ливневой дождь 10/10 600 м
[Cb calv]
+13.3 +8.8 74 +13 +13 прохладно 1002.9 970.1 +11.5 1
06 25.06 ЮВ 4 10 км слабый ливневой дождь 10/10 600 м
[Cb cap]
+13.8 +10.8 82 +12 +12 очень
холодно
1000.4 967.8

 

Местоположение метеостанции Екатеринбург (Свердловская область, Россия): широта 56.83 долгота 60.63 высота над уровнем моря 281 м.

В архиве по умолчанию представлена погода в Екатеринбурге за последнюю неделю. Архивные данные за месяц целиком и за предыдущие месяцы, начиная с января 2011 года, Вы можете получить, выбрав интересующий диапазон дат из раскрывающегося списка и нажав кнопку "Ввод!".

Внимание! Время в таблицах - всемирное. Для получения местного времени необходимо прибавить поправку, которая в Екатеринбурге равна 5 ч.

Смотрите также архив погоды в соседних городах и на ближайших метеорологических станциях:

Погода в Верхнем Дуброво (Свердловская область, Россия) (29 км)
Погода в Сысерти (Свердловская область, Россия) (38 км)
Погода в Ревде (Свердловская область, Россия) (40 км)
Погода в Невьянске (Свердловская область, Россия) (78 км)
Погода в Верхнем Уфалее (Челябинская область, Россия) (86 км)
Погода в Каменск-Уральском (Свердловская область, Россия) (88 км)
Погода в Бисерти (Свердловская область, Россия) (95 км)
Погода в Артемовском (Свердловская область, Россия) (98 км)
Погода в Михайловске (Свердловская область, Россия) (105 км)
Погода в Нязепетровске (Челябинская область, Россия) (108 км)

Пояснения к столбцам:

Ветер - указаны скорость ветра в м/с - средняя за 10 мин, порывы в срок и между сроками (в фигурных скобках) и направление, откуда дует ветер: С - северный, СВ - северо-восточный, В - восточный, ЮВ - юго-восточный, Ю - южный, ЮЗ - юго-западный, З - западный, СЗ - северо-западный.
Видимость - горизонтальная дальность видимости в метрах или километрах. При видимости от 1 до 10 км при отсутствии осадков обычно наблюдается дымка, при ухудшении видимости до 1 км и менее - туман. В сухую погоду видимость может ухудшаться дымом, пылью или мглою.
Явления - указаны атмосферные явления, наблюдавшиеся в срок или в последний час перед сроком; фигурными скобками обозначены явления, наблюдавшиеся между сроками (за 1-3 часа до срока); квадратными скобками обозначены град или гололедные отложения с указанием их диаметра в мм.
Облачность - указаны через наклонную черту общая и нижняя облачность в баллах и высота нижней границы облаков в метрах; квадратными скобками обозначены формы облаков: Ci - перистые, Cs - перисто-слоистые, Cc - перисто-кучевые, Ac - высококучевые, As - высокослоистые, Sc - слоисто-кучевые, Ns - слоисто-дождевые, Cu - кучевые, Cb - кучево-дождевые. Подробнее классификацию облаков см. в Атласе облаков (PDF).
T - Температура воздуха - температура, измеренная на высоте 2 м над землей.
Td - Температура точки росы - температура, при понижении до которой содержащийся в воздухе водяной пар достигнет насыщения.
f - Относительная влажность воздуха - влажноcть воздуха, измеренная на высоте 2 м над землей.
Te - Эффективная температура - температура, которую ощущает одетый по сезону человек в тени. Характеристика душности погоды. При расчете учитывается влияние влажности воздуха и скорости ветра на теплоощущения человека.
Tes - Эффективная температура на солнце - температура, которую ощущает человек, с поправкой на солнечный нагрев. Характеристика знойности погоды. Зависит от высоты солнца над горизонтом, облачности и скорости ветра. Ночью, в пасмурную погоду, а также при ветре 12 м/с и более поправка равна нулю.
P - Атмосферное давление - приведенное к уровню моря атмосферное давление.
Po - Атмосферное давление - измеренное на уровне метеостанции атмосферное давление.
Tmin - Минимальная температура - минимум температуры воздуха на высоте 2 м над землей.
Tmax - Максимальная температура - максимум температуры воздуха на высоте 2 м над землей.
R - Количество осадков - Количество выпавших осадков за период времени, мм. При наведении курсора мыши на число - период времени, за который выпало указанное количество осадков.
R24 - Количество осадков - Количество выпавших осадков за 24 часа, мм.
S - Снежный покров - Высота снежного покрова, см. При наведении курсора мыши на число - состояние снежного покрова и степень покрытия местности в баллах.